Location: Cortos
(40.7190°N, 4.5893°W)
Time: 19:45:53
(UTC+00:00)

Cosmos 2285 Rocket - Pass Details

Date: 05 July 2020
Orbit: 971 x 998 km, 74.0° (Epoch: 06 August)

Event Time Altitude Azimuth Distance (km) Brightness Sun altitude
Rises 20:17:05 0° 337° (NNW) 3,677 8.2 -4.7°
Reaches altitude 10° 20:19:39 10° 335° (NNW) 2,724 7.5 -5.1°
Maximum altitude 20:25:52 65° 255° (WSW) 1,065 4.5 -6.0°
Drops below altitude 10° 20:32:03 10° 175° (S) 2,707 5.9 -7.0°
Sets 20:34:36 0° 172° (S) 3,652 6.6 -7.4°
